<?xml version="1.0"?>
<gpx xmlns="http://www.topografix.com/GPX/1/1" xmlns:xsi="http://www.w3.org/2001/XMLSchema-instance" version="1.1" creator="GPX RubyGem 1.0.0 -- http://dougfales.github.io/gpx/" xsi:schemaLocation="http://www.topografix.com/GPX/1/1 http://www.topografix.com/GPX/1/1/gpx.xsd">
  <metadata>
    <name/>
    <time>2026-05-07T10:42:53+00:00</time>
    <bound minlat="90.0" minlon="180.0" maxlat="-90.0" maxlon="-180.0"/>
  </metadata>
  <trk>
    <name/>
    <trkseg>
      <trkpt lat="46.592944" lon="12.721949">
        <time>1970-01-01T00:00:00+00:00</time>
        <ele>1448.0</ele>
      </trkpt>
      <trkpt lat="46.593199" lon="12.721703">
        <time>1970-01-01T00:00:00+00:00</time>
        <ele>1448.0</ele>
      </trkpt>
      <trkpt lat="46.593658" lon="12.721331">
        <time>1970-01-01T00:00:00+00:00</time>
        <ele>1450.0</ele>
      </trkpt>
      <trkpt lat="46.593787" lon="12.721222">
        <time>1970-01-01T00:00:00+00:00</time>
        <ele>1450.0</ele>
      </trkpt>
      <trkpt lat="46.593897" lon="12.721149">
        <time>1970-01-01T00:00:00+00:00</time>
        <ele>1450.0</ele>
      </trkpt>
      <trkpt lat="46.593997" lon="12.720923">
        <time>1970-01-01T00:00:00+00:00</time>
        <ele>1451.0</ele>
      </trkpt>
      <trkpt lat="46.59417" lon="12.720713">
        <time>1970-01-01T00:00:00+00:00</time>
        <ele>1452.0</ele>
      </trkpt>
      <trkpt lat="46.594347" lon="12.72036">
        <time>1970-01-01T00:00:00+00:00</time>
        <ele>1453.0</ele>
      </trkpt>
      <trkpt lat="46.59445" lon="12.720301">
        <time>1970-01-01T00:00:00+00:00</time>
        <ele>1454.0</ele>
      </trkpt>
      <trkpt lat="46.594591" lon="12.720383">
        <time>1970-01-01T00:00:00+00:00</time>
        <ele>1457.0</ele>
      </trkpt>
      <trkpt lat="46.594763" lon="12.720046">
        <time>1970-01-01T00:00:00+00:00</time>
        <ele>1459.0</ele>
      </trkpt>
      <trkpt lat="46.594876" lon="12.720089">
        <time>1970-01-01T00:00:00+00:00</time>
        <ele>1462.0</ele>
      </trkpt>
      <trkpt lat="46.595379" lon="12.720137">
        <time>1970-01-01T00:00:00+00:00</time>
        <ele>1473.0</ele>
      </trkpt>
      <trkpt lat="46.595773" lon="12.720291">
        <time>1970-01-01T00:00:00+00:00</time>
        <ele>1483.0</ele>
      </trkpt>
      <trkpt lat="46.596227" lon="12.720572">
        <time>1970-01-01T00:00:00+00:00</time>
        <ele>1492.0</ele>
      </trkpt>
      <trkpt lat="46.596227" lon="12.720572">
        <time>1970-01-01T00:00:00+00:00</time>
        <ele>1492.0</ele>
      </trkpt>
      <trkpt lat="46.595773" lon="12.720291">
        <time>1970-01-01T00:00:00+00:00</time>
        <ele>1483.0</ele>
      </trkpt>
      <trkpt lat="46.595379" lon="12.720137">
        <time>1970-01-01T00:00:00+00:00</time>
        <ele>1473.0</ele>
      </trkpt>
      <trkpt lat="46.594876" lon="12.720089">
        <time>1970-01-01T00:00:00+00:00</time>
        <ele>1462.0</ele>
      </trkpt>
      <trkpt lat="46.594763" lon="12.720046">
        <time>1970-01-01T00:00:00+00:00</time>
        <ele>1459.0</ele>
      </trkpt>
      <trkpt lat="46.594591" lon="12.720383">
        <time>1970-01-01T00:00:00+00:00</time>
        <ele>1457.0</ele>
      </trkpt>
      <trkpt lat="46.59445" lon="12.720301">
        <time>1970-01-01T00:00:00+00:00</time>
        <ele>1454.0</ele>
      </trkpt>
      <trkpt lat="46.594347" lon="12.72036">
        <time>1970-01-01T00:00:00+00:00</time>
        <ele>1453.0</ele>
      </trkpt>
      <trkpt lat="46.59417" lon="12.720713">
        <time>1970-01-01T00:00:00+00:00</time>
        <ele>1452.0</ele>
      </trkpt>
      <trkpt lat="46.593997" lon="12.720923">
        <time>1970-01-01T00:00:00+00:00</time>
        <ele>1451.0</ele>
      </trkpt>
      <trkpt lat="46.593897" lon="12.721149">
        <time>1970-01-01T00:00:00+00:00</time>
        <ele>1450.0</ele>
      </trkpt>
      <trkpt lat="46.593787" lon="12.721222">
        <time>1970-01-01T00:00:00+00:00</time>
        <ele>1450.0</ele>
      </trkpt>
      <trkpt lat="46.593658" lon="12.721331">
        <time>1970-01-01T00:00:00+00:00</time>
        <ele>1450.0</ele>
      </trkpt>
      <trkpt lat="46.593199" lon="12.721703">
        <time>1970-01-01T00:00:00+00:00</time>
        <ele>1448.0</ele>
      </trkpt>
      <trkpt lat="46.592944" lon="12.721949">
        <time>1970-01-01T00:00:00+00:00</time>
        <ele>1448.0</ele>
      </trkpt>
    </trkseg>
  </trk>
</gpx>
